QPF
0.02 0.02 0.02 0.02 0.01 0.01 0.01 0.01 0.02 0.02 0.03 0.02 0.01 0.02 0.03 0.04 0.03 0.02 0.02 0.02 0.02 0.02 0.02 0.04 0.05 0.06 0.07 0.09 0.09 0.10 0.15 0.20 0.17 0.15 0.15 0.11 0.10 0.09 0.08 0.08 0.07 0.06 0.08
0.03 0.02 0.02 0.01 0.01 0.01 0.01 0.02 0.03 0.03 0.04 0.04 0.03 0.02 0.03 0.04 0.02 0.02 0.03 0.03 0.03 0.03 0.03 0.04 0.04 0.05 0.06 0.08 0.10 0.10 0.16 0.20 0.20 0.22 0.22 0.14 0.10 0.09 0.08 0.09 0.09 0.09 0.08
0.02 0.03 0.02 0.02 0.02 0.01 0.01 0.02 0.02 0.03 0.04 0.04 0.05 0.04 0.04 0.04 0.03 0.03 0.04 0.04 0.04 0.04 0.05 0.06 0.05 0.05 0.05 0.07 0.10 0.09 0.11 0.17 0.22 0.21 0.19 0.12 0.10 0.09 0.08 0.09 0.10 0.11 0.08
0.01 0.03 0.02 0.03 0.02 0.01 0.02 0.02 0.03 0.03 0.04 0.05 0.06 0.06 0.05 0.04 0.03 0.04 0.05 0.05 0.05 0.05 0.04 0.05 0.05 0.05 0.05 0.05 0.08 0.08 0.08 0.11 0.13 0.13 0.10 0.08 0.07 0.09 0.09 0.10 0.10 0.08 0.08
0.01 0.02 0.03 0.03 0.04 0.03 0.03 0.03 0.03 0.03 0.04 0.06 0.07 0.07 0.07 0.06 0.05 0.03 0.04 0.04 0.05 0.05 0.04 0.04 0.03 0.04 0.04 0.04 0.05 0.08 0.08 0.09 0.09 0.08 0.07 0.06 0.08 0.09 0.10 0.09 0.09 0.09 0.08
0.02 0.02 0.03 0.05 0.04 0.05 0.04 0.03 0.03 0.04 0.05 0.08 0.08 0.07 0.07 0.07 0.07 0.05 0.04 0.04 0.03 0.04 0.04 0.04 0.04 0.03 0.05 0.06 0.06 0.06 0.07 0.06 0.07 0.07 0.07 0.07 0.08 0.09 0.10 0.08 0.10 0.09 0.07
0.02 0.02 0.02 0.04 0.06 0.06 0.05 0.04 0.06 0.05 0.06 0.09 0.08 0.08 0.08 0.07 0.05 0.04 0.04 0.05 0.04 0.04 0.04 0.05 0.05 0.04 0.04 0.05 0.06 0.07 0.06 0.04 0.03 0.03 0.04 0.06 0.08 0.09 0.11 0.10 0.12 0.11 0.08
0.02 0.02 0.02 0.03 0.06 0.07 0.07 0.05 0.06 0.07 0.07 0.09 0.08 0.08 0.09 0.08 0.06 0.05 0.05 0.05 0.05 0.05 0.04 0.04 0.04 0.04 0.04 0.04 0.06 0.07 0.08 0.06 0.03 0.01 0.01 0.02 0.04 0.07 0.10 0.09 0.08 0.10 0.09
0.02 0.02 0.01 0.02 0.06 0.10 0.08 0.05 0.04 0.05 0.07 0.08 0.08 0.08 0.08 0.08 0.07 0.06 0.05 0.05 0.05 0.04 0.04 0.04 0.04 0.05 0.04 0.03 0.05 0.07 0.08 0.09 0.08 0.05 0.03 0.02 0.02 0.04 0.08 0.08 0.05 0.06 0.08
0.02 0.02 0.01 0.02 0.04 0.06 0.04 0.03 0.03 0.04 0.06 0.08 0.09 0.09 0.08 0.08 0.08 0.06 0.05 0.05 0.05 0.04 0.04 0.05 0.05 0.05 0.04 0.03 0.03 0.04 0.05 0.06 0.06 0.05 0.04 0.03 0.02 0.04 0.06 0.07 0.05 0.05 0.06
0.03 0.03 0.02 0.01 0.02 0.02 0.03 0.04 0.05 0.06 0.06 0.06 0.08 0.09 0.08 0.08 0.09 0.08 0.07 0.07 0.06 0.06 0.05 0.05 0.05 0.06 0.04 0.03 0.02 0.03 0.04 0.04 0.03 0.03 0.04 0.02 0.01 0.03 0.05 0.07 0.07 0.05 0.06
0.03 0.04 0.04 0.03 0.03 0.02 0.02 0.03 0.04 0.04 0.05 0.04 0.06 0.07 0.07 0.08 0.09 0.08 0.08 0.07 0.07 0.07 0.06 0.05 0.06 0.06 0.03 0.03 0.03 0.03 0.03 0.02 0.02 0.03 0.03 0.01 0.02 0.04 0.07 0.08 0.07 0.07 0.07
0.04 0.05 0.05 0.04 0.03 0.03 0.03 0.03 0.02 0.03 0.04 0.05 0.04 0.05 0.07 0.07 0.08 0.08 0.08 0.07 0.06 0.07 0.08 0.07 0.06 0.04 0.03 0.03 0.03 0.03 0.02 0.02 0.02 0.02 0.03 0.01 0.02 0.04 0.08 0.08 0.07 0.08 0.11
0.04 0.06 0.05 0.06 0.05 0.04 0.03 0.02 0.02 0.02 0.03 0.04 0.04 0.05 0.06 0.07 0.06 0.06 0.07 0.07 0.06 0.06 0.08 0.09 0.07 0.05 0.04 0.04 0.03 0.02 0.02 0.02 0.01 0.01 0.03 0.01 0.01 0.02 0.05 0.06 0.05 0.06 0.08
0.05 0.06 0.09 0.09 0.07 0.05 0.03 0.03 0.02 0.03 0.03 0.04 0.04 0.04 0.04 0.04 0.05 0.05 0.06 0.08 0.08 0.07 0.08 0.11 0.08 0.05 0.05 0.05 0.03 0.03 0.03 0.03 0.02 0.01 0.01 0.01 0.01 0.02 0.04 0.06 0.05 0.05 0.06
0.05 0.08 0.09 0.05 0.07 0.05 0.04 0.04 0.03 0.03 0.03 0.03 0.04 0.04 0.03 0.03 0.03 0.03 0.04 0.06 0.08 0.07 0.07 0.14 0.11 0.08 0.04 0.05 0.05 0.04 0.04 0.04 0.03 0.02 0.01 0.01 0.01 0.02 0.03 0.04 0.05 0.06 0.06
0.04 0.06 0.04 0.03 0.03 0.03 0.03 0.04 0.02 0.02 0.02 0.02 0.03 0.04 0.04 0.03 0.03 0.03 0.03 0.03 0.05 0.07 0.07 0.11 0.12 0.09 0.05 0.05 0.05 0.04 0.04 0.04 0.03 0.04 0.03 0.02 0.02 0.01 0.02 0.03 0.04 0.05 0.06
0.04 0.04 0.04 0.04 0.02 0.02 0.03 0.04 0.02 0.02 0.02 0.02 0.02 0.03 0.05 0.04 0.04 0.04 0.03 0.03 0.04 0.06 0.07 0.08 0.10 0.06 0.04 0.03 0.04 0.04 0.04 0.04 0.03 0.03 0.03 0.03 0.02 0.01 0.01 0.02 0.03 0.04 0.10
0.04 0.03 0.03 0.02 0.03 0.03 0.04 0.05 0.02 0.02 0.01 0.01 0.02 0.02 0.03 0.03 0.04 0.04 0.04 0.03 0.03 0.04 0.07 0.07 0.10 0.08 0.07 0.05 0.04 0.04 0.04 0.04 0.04 0.04 0.03 0.03 0.03 0.02 0.01 0.01 0.02 0.03 0.06
0.03 0.02 0.02 0.02 0.03 0.04 0.05 0.05 0.02 0.02 0.02 0.02 0.02 0.02 0.02 0.03 0.03 0.04 0.03 0.04 0.03 0.03 0.05 0.06 0.06 0.08 0.10 0.07 0.06 0.06 0.05 0.05 0.04 0.04 0.04 0.04 0.04 0.02 0.02 0.02 0.02 0.02 0.03
0.02 0.02 0.02 0.03 0.03 0.04 0.05 0.05 0.01 0.01 0.02 0.02 0.01 0.02 0.02 0.03 0.04 0.04 0.04 0.04 0.03 0.03 0.04 0.05 0.04 0.05 0.06 0.08 0.08 0.06 0.04 0.05 0.05 0.04 0.04 0.04 0.02 0.02 0.03 0.03 0.03 0.02 0.02
0.01 0.01 0.01 0.02 0.03 0.03 0.05 0.04 0.01 0.01 0.02 0.02 0.02 0.02 0.02 0.02 0.03 0.04 0.04 0.03 0.03 0.03 0.03 0.04 0.05 0.04 0.04 0.05 0.07 0.07 0.06 0.05 0.03 0.03 0.03 0.03 0.02 0.02 0.03 0.03 0.04 0.04 0.02
0.01 0.00 0.01 0.02 0.04 0.02 0.04 0.03 0.02 0.02 0.03 0.03 0.03 0.03 0.03 0.03 0.04 0.03 0.03 0.04 0.03 0.03 0.03 0.03 0.04 0.05 0.05 0.05 0.06 0.07 0.07 0.05 0.04 0.03 0.03 0.03 0.03 0.02 0.02 0.03 0.03 0.05 0.05
0.01 0.01 0.02 0.05 0.05 0.03 0.04 0.03 0.03 0.03 0.03 0.03 0.05 0.05 0.05 0.04 0.03 0.03 0.03 0.04 0.04 0.03 0.03 0.02 0.03 0.04 0.05 0.05 0.05 0.05 0.06 0.05 0.05 0.04 0.03 0.03 0.03 0.02 0.02 0.02 0.03 0.03 0.04
0.01 0.02 0.04 0.04 0.03 0.03 0.03 0.04 0.04 0.04 0.04 0.05 0.06 0.06 0.05 0.04 0.04 0.03 0.03 0.03 0.04 0.03 0.03 0.02 0.03 0.03 0.03 0.03 0.04 0.05 0.05 0.04 0.04 0.04 0.04 0.03 0.03 0.02 0.03 0.03 0.02 0.03 0.03
0.02 0.04 0.04 0.03 0.03 0.03 0.04 0.05 0.07 0.07 0.07 0.07 0.07 0.07 0.07 0.06 0.05 0.04 0.04 0.03 0.03 0.03 0.03 0.02 0.03 0.03 0.03 0.03 0.04 0.05 0.05 0.04 0.04 0.03 0.03 0.03 0.02 0.02 0.02 0.03 0.02 0.01 0.02
MSLP
1010.18 1010.33 1010.69 1011.21 1011.77 1012.29 1012.67 1012.88 1012.94 1012.89 1012.83 1012.84 1012.96 1013.23 1013.60 1014.03 1014.45 1014.79 1015.01 1015.13 1015.16 1015.18 1015.22 1015.33 1015.51 1015.74 1016.00 1016.23 1016.40 1016.49 1016.51 1016.49 1016.48 1016.50 1016.59 1016.75 1016.97 1017.22 1017.48 1017.73 1017.95 1018.14 1018.32
1010.27 1010.51 1010.93 1011.49 1012.07 1012.57 1012.92 1013.08 1013.08 1012.99 1012.90 1012.89 1013.03 1013.31 1013.71 1014.17 1014.59 1014.92 1015.12 1015.21 1015.22 1015.22 1015.26 1015.39 1015.61 1015.90 1016.21 1016.47 1016.66 1016.75 1016.76 1016.72 1016.67 1016.67 1016.75 1016.91 1017.14 1017.42 1017.71 1017.98 1018.21 1018.42 1018.60
1010.35 1010.65 1011.13 1011.72 1012.31 1012.80 1013.13 1013.27 1013.25 1013.13 1013.02 1013.00 1013.12 1013.40 1013.80 1014.24 1014.64 1014.94 1015.11 1015.17 1015.16 1015.15 1015.21 1015.37 1015.64 1015.98 1016.34 1016.64 1016.85 1016.95 1016.95 1016.89 1016.82 1016.81 1016.88 1017.05 1017.30 1017.59 1017.90 1018.19 1018.45 1018.67 1018.86
1010.43 1010.77 1011.28 1011.89 1012.49 1012.99 1013.32 1013.45 1013.42 1013.30 1013.18 1013.16 1013.27 1013.53 1013.90 1014.30 1014.67 1014.93 1015.07 1015.10 1015.08 1015.09 1015.17 1015.37 1015.68 1016.06 1016.45 1016.79 1017.01 1017.11 1017.11 1017.04 1016.96 1016.95 1017.03 1017.21 1017.47 1017.79 1018.11 1018.42 1018.69 1018.92 1019.13
1010.51 1010.87 1011.38 1012.00 1012.61 1013.12 1013.46 1013.62 1013.61 1013.51 1013.41 1013.38 1013.49 1013.73 1014.06 1014.43 1014.76 1014.99 1015.10 1015.13 1015.11 1015.14 1015.25 1015.48 1015.82 1016.22 1016.63 1016.96 1017.18 1017.27 1017.26 1017.18 1017.11 1017.11 1017.21 1017.41 1017.69 1018.03 1018.37 1018.68 1018.96 1019.20 1019.41
1010.61 1010.95 1011.45 1012.05 1012.66 1013.18 1013.56 1013.75 1013.79 1013.73 1013.66 1013.65 1013.76 1013.99 1014.30 1014.64 1014.94 1015.16 1015.27 1015.31 1015.32 1015.38 1015.52 1015.77 1016.12 1016.52 1016.91 1017.22 1017.41 1017.47 1017.43 1017.35 1017.29 1017.31 1017.43 1017.67 1017.98 1018.33 1018.69 1019.00 1019.27 1019.50 1019.70
1010.75 1011.04 1011.49 1012.06 1012.65 1013.18 1013.59 1013.83 1013.92 1013.92 1013.90 1013.94 1014.06 1014.30 1014.60 1014.93 1015.23 1015.46 1015.59 1015.67 1015.73 1015.82 1015.99 1016.26 1016.60 1016.98 1017.31 1017.56 1017.69 1017.71 1017.64 1017.55 1017.50 1017.54 1017.70 1017.97 1018.32 1018.70 1019.05 1019.36 1019.60 1019.80 1019.98
1010.92 1011.14 1011.52 1012.04 1012.60 1013.12 1013.55 1013.83 1013.99 1014.06 1014.10 1014.19 1014.35 1014.60 1014.92 1015.27 1015.59 1015.84 1016.03 1016.16 1016.28 1016.42 1016.63 1016.90 1017.22 1017.54 1017.80 1017.97 1018.03 1017.97 1017.86 1017.75 1017.71 1017.78 1017.98 1018.29 1018.68 1019.07 1019.43 1019.72 1019.94 1020.09 1020.22
1011.11 1011.26 1011.57 1012.01 1012.52 1013.02 1013.45 1013.77 1013.98 1014.11 1014.22 1014.36 1014.57 1014.85 1015.20 1015.57 1015.93 1016.24 1016.48 1016.68 1016.87 1017.07 1017.30 1017.58 1017.87 1018.13 1018.32 1018.40 1018.36 1018.24 1018.07 1017.94 1017.90 1017.99 1018.23 1018.58 1019.00 1019.42 1019.79 1020.07 1020.25 1020.35 1020.43
1011.32 1011.40 1011.63 1011.99 1012.44 1012.90 1013.31 1013.64 1013.88 1014.06 1014.22 1014.42 1014.67 1015.00 1015.38 1015.79 1016.19 1016.55 1016.86 1017.13 1017.38 1017.64 1017.91 1018.19 1018.46 1018.67 1018.78 1018.78 1018.66 1018.47 1018.26 1018.10 1018.05 1018.15 1018.42 1018.81 1019.26 1019.70 1020.08 1020.35 1020.50 1020.57 1020.59
1011.54 1011.57 1011.73 1012.02 1012.39 1012.79 1013.16 1013.48 1013.73 1013.94 1014.14 1014.37 1014.66 1015.02 1015.43 1015.87 1016.31 1016.72 1017.09 1017.42 1017.73 1018.04 1018.35 1018.64 1018.90 1019.08 1019.14 1019.08 1018.91 1018.66 1018.41 1018.22 1018.15 1018.26 1018.54 1018.94 1019.42 1019.88 1020.27 1020.55 1020.69 1020.74 1020.72
1011.75 1011.76 1011.88 1012.11 1012.41 1012.74 1013.06 1013.34 1013.57 1013.78 1013.99 1014.24 1014.55 1014.93 1015.36 1015.82 1016.29 1016.73 1017.13 1017.51 1017.87 1018.22 1018.56 1018.88 1019.14 1019.31 1019.37 1019.28 1019.09 1018.81 1018.53 1018.32 1018.24 1018.33 1018.60 1019.00 1019.48 1019.95 1020.36 1020.65 1020.81 1020.86 1020.84
1011.93 1011.97 1012.08 1012.26 1012.50 1012.77 1013.02 1013.25 1013.45 1013.63 1013.84 1014.09 1014.41 1014.79 1015.22 1015.68 1016.15 1016.60 1017.02 1017.42 1017.80 1018.18 1018.55 1018.89 1019.19 1019.38 1019.46 1019.39 1019.21 1018.94 1018.66 1018.43 1018.32 1018.38 1018.62 1018.99 1019.46 1019.93 1020.35 1020.67 1020.86 1020.94 1020.94
1012.09 1012.17 1012.30 1012.47 1012.68 1012.88 1013.08 1013.25 1013.40 1013.55 1013.74 1013.97 1014.28 1014.65 1015.07 1015.51 1015.96 1016.39 1016.80 1017.19 1017.58 1017.96 1018.35 1018.73 1019.06 1019.31 1019.43 1019.43 1019.29 1019.06 1018.79 1018.56 1018.43 1018.45 1018.63 1018.95 1019.38 1019.83 1020.26 1020.60 1020.83 1020.96 1021.02
1012.19 1012.35 1012.53 1012.72 1012.91 1013.08 1013.23 1013.35 1013.46 1013.58 1013.73 1013.94 1014.22 1014.57 1014.96 1015.37 1015.78 1016.17 1016.54 1016.90 1017.27 1017.64 1018.04 1018.44 1018.82 1019.13 1019.33 1019.40 1019.34 1019.18 1018.95 1018.73 1018.57 1018.54 1018.65 1018.91 1019.27 1019.68 1020.09 1020.45 1020.73 1020.92 1021.04
1012.23 1012.49 1012.73 1012.96 1013.16 1013.32 1013.45 1013.54 1013.61 1013.70 1013.83 1014.02 1014.27 1014.58 1014.94 1015.30 1015.66 1016.00 1016.32 1016.63 1016.95 1017.30 1017.69 1018.10 1018.51 1018.89 1019.17 1019.34 1019.38 1019.29 1019.12 1018.92 1018.75 1018.67 1018.70 1018.87 1019.14 1019.49 1019.86 1020.22 1020.53 1020.77 1020.96
1012.20 1012.55 1012.87 1013.16 1013.39 1013.57 1013.69 1013.78 1013.84 1013.91 1014.02 1014.19 1014.41 1014.69 1015.00 1015.32 1015.63 1015.91 1016.16 1016.41 1016.68 1016.99 1017.35 1017.76 1018.20 1018.62 1018.98 1019.24 1019.37 1019.37 1019.27 1019.10 1018.93 1018.80 1018.76 1018.83 1019.01 1019.28 1019.59 1019.93 1020.24 1020.53 1020.77
1012.11 1012.54 1012.93 1013.28 1013.56 1013.77 1013.92 1014.02 1014.09 1014.16 1014.27 1014.41 1014.62 1014.86 1015.13 1015.41 1015.66 1015.88 1016.08 1016.27 1016.48 1016.75 1017.07 1017.46 1017.90 1018.35 1018.77 1019.10 1019.32 1019.40 1019.37 1019.24 1019.08 1018.92 1018.82 1018.80 1018.88 1019.05 1019.30 1019.58 1019.89 1020.19 1020.46
1011.97 1012.46 1012.91 1013.31 1013.64 1013.90 1014.09 1014.22 1014.31 1014.40 1014.50 1014.64 1014.82 1015.03 1015.27 1015.50 1015.71 1015.89 1016.04 1016.19 1016.36 1016.58 1016.86 1017.22 1017.65 1018.10 1018.54 1018.92 1019.20 1019.35 1019.38 1019.31 1019.16 1018.99 1018.85 1018.76 1018.76 1018.84 1019.00 1019.22 1019.49 1019.78 1020.07
1011.83 1012.34 1012.83 1013.26 1013.63 1013.93 1014.16 1014.33 1014.46 1014.56 1014.67 1014.80 1014.96 1015.15 1015.35 1015.55 1015.73 1015.88 1016.02 1016.14 1016.28 1016.47 1016.72 1017.04 1017.44 1017.87 1018.31 1018.70 1019.02 1019.22 1019.31 1019.28 1019.17 1019.01 1018.85 1018.72 1018.64 1018.65 1018.73 1018.88 1019.10 1019.36 1019.65
1011.71 1012.22 1012.70 1013.15 1013.54 1013.88 1014.14 1014.35 1014.51 1014.63 1014.74 1014.86 1015.00 1015.15 1015.32 1015.50 1015.67 1015.81 1015.95 1016.07 1016.22 1016.39 1016.62 1016.92 1017.27 1017.67 1018.07 1018.45 1018.77 1019.00 1019.13 1019.15 1019.08 1018.95 1018.80 1018.66 1018.55 1018.50 1018.52 1018.61 1018.76 1018.98 1019.25
1011.64 1012.12 1012.58 1013.02 1013.41 1013.76 1014.04 1014.27 1014.45 1014.58 1014.69 1014.79 1014.90 1015.02 1015.17 1015.32 1015.48 1015.64 1015.80 1015.95 1016.12 1016.31 1016.54 1016.81 1017.12 1017.47 1017.83 1018.18 1018.48 1018.71 1018.86 1018.93 1018.91 1018.83 1018.72 1018.60 1018.49 1018.41 1018.39 1018.43 1018.54 1018.71 1018.95
1011.65 1012.08 1012.49 1012.89 1013.26 1013.60 1013.89 1014.12 1014.30 1014.43 1014.53 1014.60 1014.67 1014.75 1014.86 1015.00 1015.16 1015.34 1015.53 1015.74 1015.95 1016.18 1016.42 1016.68 1016.97 1017.27 1017.57 1017.87 1018.13 1018.35 1018.52 1018.62 1018.67 1018.65 1018.60 1018.53 1018.45 1018.39 1018.36 1018.37 1018.44 1018.58 1018.79
1011.72 1012.09 1012.45 1012.79 1013.12 1013.42 1013.70 1013.92 1014.09 1014.20 1014.26 1014.30 1014.32 1014.36 1014.43 1014.54 1014.70 1014.90 1015.14 1015.40 1015.67 1015.95 1016.22 1016.49 1016.75 1017.02 1017.27 1017.51 1017.74 1017.94 1018.11 1018.25 1018.36 1018.42 1018.45 1018.45 1018.44 1018.42 1018.41 1018.43 1018.49 1018.61 1018.80
1011.83 1012.15 1012.44 1012.72 1013.00 1013.25 1013.49 1013.68 1013.83 1013.91 1013.93 1013.92 1013.89 1013.87 1013.90 1013.98 1014.12 1014.34 1014.61 1014.92 1015.25 1015.58 1015.89 1016.18 1016.44 1016.68 1016.89 1017.09 1017.28 1017.47 1017.65 1017.83 1017.99 1018.14 1018.26 1018.36 1018.44 1018.49 1018.53 1018.58 1018.65 1018.77 1018.96
1011.94 1012.21 1012.45 1012.67 1012.88 1013.08 1013.27 1013.43 1013.53 1013.57 1013.56 1013.49 1013.41 1013.33 1013.30 1013.34 1013.46 1013.67 1013.96 1014.31 1014.68 1015.06 1015.41 1015.73 1016.00 1016.22 1016.42 1016.59 1016.76 1016.94 1017.14 1017.35 1017.58 1017.82 1018.04 1018.24 1018.42 1018.56 1018.68 1018.79 1018.90 1019.04 1019.23
Thickness
5804 5801 5789 5786 5783 5781 5779 5777 5775 5773 5772 5770 5768 5767 5765 5763 5762 5761 5760 5758 5758 5757 5755 5754 5753 5752 5752 5751 5751 5750 5749 5748 5748 5747 5746 5745 5744 5744 5743 5743 5743 5745 5743
5805 5798 5787 5784 5781 5779 5777 5775 5773 5771 5769 5767 5765 5764 5763 5761 5760 5758 5757 5756 5755 5754 5753 5752 5751 5750 5749 5748 5747 5747 5746 5746 5745 5744 5744 5743 5742 5741 5741 5741 5741 5742 5740
5802 5795 5787 5782 5779 5777 5775 5773 5771 5769 5767 5765 5763 5761 5760 5759 5757 5756 5755 5753 5752 5751 5751 5749 5748 5748 5747 5745 5745 5744 5743 5743 5742 5742 5742 5744 5742 5739 5738 5738 5737 5737 5736
5799 5793 5787 5780 5777 5774 5773 5770 5768 5766 5764 5762 5760 5759 5758 5756 5755 5753 5752 5751 5750 5749 5748 5747 5746 5745 5744 5743 5742 5741 5741 5740 5740 5740 5743 5744 5742 5738 5736 5735 5734 5734 5733
5796 5792 5783 5777 5774 5772 5770 5767 5765 5763 5761 5759 5758 5756 5755 5753 5752 5751 5750 5749 5748 5746 5746 5744 5743 5743 5742 5741 5740 5739 5738 5738 5738 5739 5742 5742 5740 5736 5734 5733 5733 5732 5731
5794 5790 5781 5774 5771 5769 5766 5764 5762 5760 5758 5756 5755 5753 5752 5751 5749 5748 5747 5746 5745 5744 5743 5742 5741 5740 5739 5738 5738 5737 5736 5736 5737 5741 5740 5739 5738 5734 5732 5731 5730 5730 5728
5792 5788 5780 5772 5768 5766 5763 5761 5759 5757 5755 5753 5751 5750 5748 5747 5746 5745 5744 5743 5742 5741 5740 5739 5738 5737 5736 5736 5735 5734 5734 5734 5738 5740 5738 5737 5735 5732 5730 5729 5728 5727 5726
5789 5785 5777 5768 5765 5762 5760 5758 5756 5754 5751 5749 5748 5746 5745 5744 5742 5741 5740 5740 5739 5738 5737 5736 5735 5734 5734 5733 5732 5732 5731 5731 5735 5738 5737 5737 5732 5729 5728 5727 5726 5725 5725
5786 5782 5775 5770 5764 5760 5757 5755 5752 5750 5748 5746 5745 5743 5742 5740 5739 5738 5737 5736 5736 5735 5734 5733 5732 5731 5731 5730 5729 5729 5729 5730 5734 5736 5736 5735 5730 5727 5725 5725 5725 5724 5723
5782 5778 5773 5770 5765 5761 5757 5752 5749 5747 5745 5743 5741 5739 5738 5736 5735 5734 5734 5733 5732 5731 5730 5729 5729 5728 5727 5727 5727 5726 5726 5727 5733 5735 5735 5732 5727 5725 5724 5723 5723 5723 5722
5776 5774 5771 5768 5764 5761 5758 5752 5748 5744 5742 5740 5738 5736 5735 5736 5735 5733 5732 5730 5728 5727 5727 5726 5726 5725 5725 5725 5724 5724 5724 5730 5735 5734 5733 5729 5725 5723 5722 5722 5721 5721 5720
5770 5769 5767 5765 5762 5759 5756 5751 5748 5746 5742 5740 5738 5736 5735 5734 5732 5731 5728 5726 5725 5724 5724 5723 5723 5723 5723 5726 5725 5724 5728 5731 5733 5732 5730 5726 5723 5721 5720 5720 5719 5719 5718
5769 5765 5764 5761 5758 5756 5753 5750 5747 5745 5742 5740 5737 5734 5732 5731 5730 5728 5727 5725 5724 5723 5724 5722 5722 5724 5726 5727 5727 5727 5728 5730 5731 5731 5729 5724 5721 5719 5718 5718 5717 5717 5716
5766 5762 5761 5758 5754 5751 5750 5748 5745 5743 5741 5739 5735 5732 5731 5729 5727 5726 5725 5725 5724 5723 5723 5722 5722 5723 5723 5723 5724 5726 5727 5727 5729 5728 5725 5721 5719 5717 5716 5715 5715 5715 5714
5764 5760 5758 5755 5751 5747 5745 5744 5743 5740 5739 5736 5733 5730 5728 5728 5725 5724 5722 5720 5721 5721 5720 5719 5720 5720 5719 5720 5721 5723 5723 5724 5724 5725 5723 5719 5716 5714 5713 5713 5713 5713 5712
5761 5758 5756 5752 5748 5744 5742 5740 5739 5738 5734 5734 5730 5727 5725 5724 5723 5721 5719 5717 5718 5718 5718 5716 5716 5716 5717 5717 5718 5718 5719 5720 5720 5720 5720 5718 5714 5712 5711 5711 5710 5710 5710
5760 5757 5753 5750 5747 5742 5740 5738 5737 5735 5732 5730 5727 5724 5721 5720 5719 5717 5717 5715 5715 5713 5713 5712 5712 5713 5714 5715 5715 5715 5716 5716 5716 5716 5716 5716 5715 5712 5710 5708 5708 5708 5707
5758 5754 5750 5749 5745 5740 5737 5734 5734 5731 5729 5726 5724 5721 5718 5716 5714 5713 5714 5714 5711 5711 5710 5709 5709 5710 5712 5712 5712 5713 5713 5712 5712 5712 5713 5713 5713 5713 5710 5707 5705 5705 5704
5756 5752 5748 5746 5742 5739 5735 5732 5730 5727 5724 5722 5720 5718 5715 5713 5711 5710 5711 5710 5708 5708 5707 5707 5707 5706 5706 5707 5708 5708 5710 5710 5709 5710 5710 5709 5708 5708 5708 5705 5703 5702 5701
5754 5750 5746 5742 5739 5735 5732 5728 5726 5723 5721 5718 5717 5714 5711 5709 5707 5707 5707 5705 5705 5704 5703 5702 5700 5700 5701 5702 5704 5705 5705 5707 5707 5707 5707 5707 5705 5705 5704 5704 5702 5701 5699
5750 5746 5743 5739 5736 5732 5729 5725 5722 5719 5717 5715 5713 5710 5707 5705 5704 5702 5703 5700 5700 5700 5698 5698 5697 5696 5697 5697 5696 5696 5700 5702 5703 5702 5703 5703 5703 5702 5701 5700 5700 5699 5699
5747 5743 5740 5737 5734 5730 5727 5722 5719 5716 5713 5711 5709 5705 5703 5701 5699 5699 5697 5696 5696 5695 5693 5692 5690 5692 5693 5693 5690 5688 5689 5693 5695 5701 5700 5698 5699 5699 5699 5698 5696 5695 5695
5745 5742 5740 5735 5731 5727 5723 5720 5716 5711 5707 5706 5703 5701 5699 5696 5694 5693 5692 5691 5690 5691 5690 5687 5687 5685 5686 5688 5687 5684 5683 5685 5690 5695 5695 5695 5694 5694 5694 5694 5693 5692 5690
5744 5742 5737 5732 5728 5724 5719 5716 5712 5707 5703 5701 5700 5698 5695 5692 5690 5688 5687 5686 5685 5686 5685 5684 5684 5683 5681 5682 5683 5682 5681 5683 5680 5683 5687 5689 5689 5688 5689 5689 5689 5688 5686
5743 5739 5734 5729 5724 5720 5716 5712 5708 5704 5702 5700 5696 5693 5690 5688 5686 5684 5683 5682 5681 5681 5681 5679 5679 5678 5678 5677 5678 5678 5677 5677 5677 5677 5677 5681 5682 5684 5684 5683 5683 5683 5682
5741 5737 5732 5725 5720 5716 5712 5709 5704 5700 5696 5694 5690 5688 5685 5684 5683 5681 5679 5678 5677 5676 5675 5674 5673 5673 5672 5672 5672 5673 5673 5673 5673 5674 5673 5673 5675 5678 5679 5678 5678 5679 5678